カタログに戻る

STARLINK-37674

運用中通信VLEO
NORAD 100278·PAYLOAD·🇺🇸 United States

打ち上げ Aug 11, 2026 から Cape Canaveral Space Force Station

Loading…

次のパス (今後24時間)

TLE

経年Source: Space-Track

元期: Sep 13, 2026, 07:07 UTC

1 A0278U 26183G   26256.29673909 -.01285714  00000-0 -10944-1 0  9992
2 A0278  53.1586 292.7948 0000409  34.8762 325.2284 15.71615023  5171

AllMySatでSTARLINK-37674をリアルタイム追跡

Download on the App Store